{"data":{"norad_id":68482,"epoch":"2026-09-20T03:43:43.485888Z","epoch_age_seconds":98577,"freshness":"FRESH","line1":"1 68482U 26067BU  26263.15536442  .00002171  00000+0  21206-3 0  9992","line2":"2 68482  97.7671 220.2557 0002124 322.6875  37.4196 14.93425611 25904","mean_motion":14.93425611,"eccentricity":0.0002124,"inclination_deg":97.7671,"raan_deg":220.2557,"arg_perigee_deg":322.6875,"mean_anomaly_deg":37.4196,"bstar":0.00021206,"rev_number":2590,"period_min":96.422613178287,"perigee_km":585.78434836085,"apogee_km":588.74325062048,"semimajor_km":6965.4007994907,"source":"CELESTRAK","updated_at":"2026-09-20T09:00:24.248373Z"}}